Weather History for KALS - December, 2012

Change the Weather History Date:

Saturday, December 1, 2012

  Actual Average Record
Temperature  
Mean Temperature 34 °F 22 °F  
Max Temperature 54 °F 39 °F 56 °F (1973)
Min Temperature 13 °F 5 °F -17 °F (1987)
Degree Days  
Heating Degree Days 31 43  
Month to date heating degree days 31 43  
Since 1 July heating degree days 2079 2218  
Cooling Degree Days 0 0  
Month to date cooling degree days 0 0  
Year to date cooling degree days 115 51  
Moisture  
Dew Point 15 °F    
Average Humidity 54    
Maximum Humidity 84    
Minimum Humidity 24    
Precipitation  
Precipitation 0.00 in 0.01 in 0.65 in (1933)
Month to date precipitation 0.00 0.01  
Year to date precipitation 4.77 6.97  
Snow  
Snow 0.00 in 0.10 in 8.00 in (1933)
Month to date snowfall 0.0 0.1  
Since 1 July snowfall T 5.9  
Snow Depth 0.00 in    
Sea Level Pressure  
Sea Level Pressure 30.13 in    
Wind  
Wind Speed 5 mph (SE)    
Max Wind Speed 14 mph    
Max Gust Speed 15 mph    
Visibility 10 miles    
Events      
T = Trace of Precipitation, MM = Missing Value Source: NWS Daily Summary

Daily Weather History Graph

Daily Weather History Graph

Search for Another Location

Airport or City:

Trip Planner

Search our weather history database for the weather conditions in past years. The results will help you decide how hot, cold, wet, or windy it might be!

Date:

Astronomy

Dec. 01, 2012 Rise Set
Actual Time 6:59 AM MST 4:45 PM MST
Civil Twilight 6:30 AM MST 5:14 PM MST
Nautical Twilight 5:58 AM MST 5:46 PM MST
Astronomical Twilight 5:27 AM MST 6:18 PM MST
Moon 7:37 PM MST (12/1) 9:15 AM MST (12/1)
Length of Visible Light 10h 43m
Length of Day
9h 45m
Waning Gibbous, 91% of the Moon is Illuminated
Dec 1
Waning Gibbous
Dec 6
Last Quarter
Dec 13
New
Dec 19
First Quarter
Dec 28
Full

Hourly Weather History & Observations

Time (MST) Temp. Windchill Dew Point Humidity Pressure Visibility Wind Dir Wind Speed Gust Speed Precip Events Conditions
12:52 AM 30.9 °F 24.3 °F 15.1 °F 52% 30.04 in 10.0 mi South 6.9 mph - N/A   Clear
1:52 AM 28.9 °F 21.1 °F 14.0 °F 54% 30.01 in 10.0 mi SSW 8.1 mph - N/A   Clear
2:52 AM 27.0 °F 21.6 °F 14.0 °F 58% 30.03 in 10.0 mi WNW 4.6 mph - N/A   Clear
3:52 AM 23.0 °F 17.0 °F 12.9 °F 65% 30.06 in 10.0 mi NNE 4.6 mph - N/A   Clear
4:52 AM 21.0 °F 11.4 °F 12.0 °F 68% 30.11 in 10.0 mi NE 8.1 mph - N/A   Clear
5:52 AM 17.1 °F 11.7 °F 10.0 °F 74% 30.22 in 10.0 mi NNE 3.5 mph - N/A   Clear
6:52 AM 12.9 °F 5.2 °F 8.1 °F 81% 30.27 in 10.0 mi West 4.6 mph - N/A   Clear
7:52 AM 16.0 °F - 10.0 °F 77% 30.27 in 10.0 mi Calm Calm - N/A   Clear
8:52 AM 30.9 °F 27.5 °F 16.0 °F 54% 30.17 in 10.0 mi WSW 3.5 mph - N/A   Clear
9:52 AM 43.0 °F 40.3 °F 19.0 °F 38% 30.12 in 10.0 mi SE 4.6 mph - N/A   Clear
10:52 AM 46.9 °F - 19.0 °F 33% 30.10 in 10.0 mi East 3.5 mph - N/A   Clear
11:52 AM 48.9 °F - 19.0 °F 31% 30.06 in 10.0 mi Calm Calm - N/A   Clear
12:52 PM 51.1 °F - 18.0 °F 27% 30.05 in 10.0 mi Calm Calm - N/A   Clear
1:52 PM 53.1 °F - 18.0 °F 25% 30.03 in 10.0 mi SSE 6.9 mph - N/A   Clear
2:52 PM 54.0 °F - 17.1 °F 23% 30.02 in 10.0 mi Variable 5.8 mph - N/A   Clear
3:52 PM 53.1 °F - 17.1 °F 24% 30.06 in 10.0 mi East 5.8 mph - N/A   Clear
4:52 PM 42.1 °F 37.1 °F 16.0 °F 35% 30.13 in 10.0 mi East 8.1 mph - N/A   Clear
5:52 PM 37.9 °F 32.1 °F 17.1 °F 43% 30.19 in 10.0 mi SE 8.1 mph - N/A   Clear
6:52 PM 33.1 °F 27.7 °F 17.1 °F 52% 30.25 in 10.0 mi SW 5.8 mph - N/A   Clear
7:52 PM 26.1 °F 19.4 °F 15.1 °F 63% 30.30 in 10.0 mi South 5.8 mph - N/A   Clear
8:52 PM 28.0 °F 24.2 °F 15.1 °F 58% 30.21 in 10.0 mi Variable 3.5 mph - N/A   Clear
9:52 PM 27.0 °F - 16.0 °F 63% 30.17 in 10.0 mi Calm Calm - N/A   Clear
10:52 PM 25.0 °F 16.3 °F 16.0 °F 69% 30.18 in 10.0 mi East 8.1 mph - N/A   Clear
11:52 PM 25.0 °F 18.1 °F 16.0 °F 69% 30.16 in 10.0 mi East 5.8 mph - N/A   Clear